Location: Fort Wayne
(41.1310°N, 85.1290°W)
Time: 00:38:35
(UTC-04:00)

Cosmos 2219 Rocket - Visible Passes

Search period start: 07 July 2015 00:00
Search period end: 17 July 2015 00:00
Orbit: 827 x 848 km, 71.0° (Epoch: 06 July)

Date Brightness Start Highest point End Pass type
(mag) Time Alt. Az. Time Alt. Az. Time Alt. Az.
07 Jul 2.5 01:39:48 10° NW 01:45:17 50° WSW 01:45:17 50° WSW visible
07 Jul 3.8 23:40:10 10° N 23:44:38 24° NE 23:47:27 17° E visible
08 Jul 2.4 01:23:28 10° NNW 01:29:01 54° WSW 01:29:09 54° WSW visible
08 Jul 3.9 23:23:57 10° N 23:28:16 22° NE 23:31:20 15° E visible
09 Jul 2.3 01:07:08 10° NNW 01:12:43 59° WSW 01:13:02 58° SW visible
09 Jul 4.0 23:07:45 10° N 23:11:54 21° NE 23:15:15 13° E visible
10 Jul 2.2 00:50:48 10° NNW 00:56:26 64° WSW 00:56:58 60° SW visible
10 Jul 4.0 22:51:33 10° N 22:55:32 20° NE 22:59:12 12° E visible
11 Jul 2.2 00:34:28 10° NNW 00:40:08 69° WSW 00:40:55 61° SSW visible
11 Jul 4.1 22:35:23 10° N 22:39:10 18° NE 22:43:06 10° E visible
12 Jul 2.2 00:18:10 10° NNW 00:23:51 75° WSW 00:24:55 58° S visible
12 Jul 4.1 22:19:12 10° N 22:22:48 17° NE 22:26:33 10° E visible
13 Jul 2.1 00:01:51 10° NNW 00:07:33 80° WSW 00:08:56 53° S visible
13 Jul 4.2 22:03:03 10° N 22:06:25 16° NE 22:09:58 10° E visible
13 Jul 2.1 23:45:33 10° NNW 23:51:15 86° WSW 23:53:00 47° SSE visible
14 Jul 4.5 01:33:01 10° W 01:34:28 11° W 01:34:43 11° W visible
14 Jul 4.2 21:46:55 10° NNE 21:50:02 15° NE 21:53:21 10° E visible
14 Jul 2.1 23:29:15 10° NNW 23:34:57 88° ENE 23:37:05 40° SSE visible
15 Jul 4.4 01:16:03 10° WNW 01:18:13 12° W 01:18:48 12° WSW visible
15 Jul 2.1 23:12:56 10° NNW 23:18:39 82° ENE 23:21:13 34° SSE visible
16 Jul 4.4 00:59:18 10° WNW 01:01:57 13° W 01:02:56 12° WSW visible
16 Jul 2.2 22:56:39 10° NNW 23:02:21 76° ENE 23:05:23 28° SSE visible
